星链-34322 (STARLINK-34322)

导读

STARLINK-34322是美国SpaceX公司星链(Starlink)星座的一颗卫星,于2025年6月28日发射。星链项目旨在构建全球卫星互联网星座,为全球偏远地区、海洋空域等提供高速宽带互联网服务。该卫星是星链星座部署过程中的一员,延续了星链卫星批量发射组网的特点,进一步扩展了星链星座的全球覆盖范围与服务能力。

Basic Information
目录编号:
64702
目录名称:
STARLINK-34322
国际标识:
2025-142G
轨道中心:
EARTH
卫星名称:
星链-34322
卫星全名:
星链-34322 (STARLINK-34322)
卫星状态:
在轨 (已飞行351 天)
发射日期:
2025-06-28 UTC
国别 :
美国 (US)
星等 :
--
Orbit Information
数据来源 国际轨道数据 AOE轨道数据
星历时间 2026-06-14T03:52:05+0800
6小时前
查看轨道信息
2026-06-14T01:00:00+0800
8小时前
查看轨道信息
半长轴 6950.186km 6950.114km
偏心率 0.0002856 0.0002959
轨道倾角 70.002° 70.001°
近地点辐角 264.912° 271.986°
升交点赤经 71.940° 72.239°
平近点角 95.171° 163.720°
近地点 570.064km 569.92km
远地点 574.034km 574.034km
周期 96.107分钟 96.105分钟
每日圈数 14.983324 14.983557
Detailed Information
固有亮度:
5
最大亮度:
2.5
卫星平台:
Starlink V1.0
覆盖范围:
全球
运营商:
太空探索技术公司
运营商所在国:
美国
制造商(研发单位):
太空探索技术公司
制造商所在国:
美国
使用方式:
暂无
Satellite Introduction
Starlink 计划是 SpaceX 推出的全球卫星互联网项目,通过发射低轨道卫星,为全球尤其是偏远地区提供高速、低延迟的互联网服务。自 2019 年起,Starlink 已部署数千颗卫星,旨在缩小全球数字鸿沟,推动互联网普及。该项目还为军事、航空等行业提供通信支持,带来广泛经济效益。
2D Orbit Map
3D Orbit Map
Orbit Altitude Analysis Chart
Orbit Inclination Analysis Chart
Orbit Comprehensive Analysis Chart
View Comprehensive Chart